Location: Alleynedale
(13.2833°N, 59.6167°W)
Time: 04:36:54
(UTC+00:00)

Daily predictions for brighter satellites

Satellite Brightness Start Highest point End
(mag) Time Altitude Azimuth Time Altitude Azimuth Time Altitude Azimuth
BREEZE-M DEB (TANK) 4.2 00:00:16 10° NNW 00:33:29 - SE 00:04:56 62° NE
Cosmos 2227 Rocket 3.9 00:01:08 10° SW 00:06:03 31° WNW 00:10:58 10° N
ADEOS Rocket 3.8 00:00:45 10° N 00:08:21 67° WNW 00:16:01 10° SSW
Cosmos 2360 Rocket 4.5 00:05:23 10° WNW 00:09:26 20° WSW 00:13:29 10° SSW
Cosmos 2297 Rocket 4.4 00:12:42 10° WSW 00:16:58 22° WNW 00:21:16 10° NNW
ATLAS 2AS CENTAUR R/B 3.9 00:17:46 10° NNW 00:21:22 31° N 00:21:22 31° N
ATLAS 3B CENTAUR R/B 3.9 06:58:49 41° ESE 06:58:49 41° ESE 07:02:03 10° ESE
USA 215 4.4 07:17:00 10° NNE 07:20:25 32° N 07:20:25 32° N
Meteor 1-27 Rocket 4.1 07:38:37 64° NE 07:38:37 64° NE 07:43:49 10° NNE
Atlas Centaur 2 4.4 07:40:37 18° NNW 07:42:57 21° NNE 07:48:33 10° ENE
GPS 2-15 Rocket1 3.8 08:00:31 47° SSE 08:00:31 47° SSE 08:04:22 10° ESE
H-2A R/B 3.7 07:59:13 13° NNE 08:00:18 15° NE 08:03:37 10° E
Ariane H10+ 2.6 08:05:07 43° S 08:05:07 43° S 08:08:30 10° ESE
CZ-2C R/B 2.6 08:02:00 10° NNE 08:07:01 72° ESE 08:12:09 10° S
Lacrosse 5 rocket 4.5 08:06:53 10° NNE 08:09:16 14° NE 08:11:40 10° E
Okean 1-7 3.8 08:05:29 10° S 08:09:44 51° E 08:13:59 10° NNE
GPS 2-12 Rocket1 4.3 08:11:23 30° S 08:12:10 31° SSE 08:16:24 10° E
FUSE 4.0 08:13:48 57° NW 08:14:26 61° NNW 08:19:41 10° ENE
ISS -2.8 08:17:46 43° SE 08:17:46 43° SE 08:20:09 10° SE
Meteor 1-31 Rocket 2.6 08:22:01 10° N 08:25:51 74° WNW 08:26:45 50° SSW
IUS-1 SRM-2 2.9 08:27:36 29° ESE 08:27:36 29° ESE 08:28:45 10° ESE
Abrixas rocket 2.7 08:30:16 43° N 08:30:16 43° N 08:32:32 10° NNE
Meteor PRIRODA 3.9 08:25:55 10° NNE 08:29:35 70° ESE 08:33:17 10° S
Cosmos 1655 Rocket 4.0 08:24:08 10° SSW 08:30:09 53° W 08:36:12 10° N
Cosmos 1656 4.5 08:25:03 10° S 08:30:32 53° ESE 08:36:02 10° NNE
COSMOS 2487 2.5 08:31:06 54° SSW 08:31:06 54° SSW 08:33:56 10° S
PSLV R/B 4.0 08:28:13 10° S 08:32:17 52° WSW 08:36:20 10° NNW
GPS 2-04 Rocket1 4.3 08:30:19 16° NNW 08:33:00 31° NNE 08:36:34 10° E
PAYLOAD A 4.3 08:31:03 10° N 08:35:19 35° WNW 08:35:41 35° W
Cosmos 1340 3.4 08:31:57 10° N 08:35:38 54° E 08:39:18 10° SSE
Cosmos 1536 3.1 08:33:00 10° N 08:36:57 67° E 08:40:54 10° SSE
Meteor 2-13 Rocket 4.3 08:31:31 10° S 08:37:36 71° W 08:43:44 10° N
Cosmos 1908 Rocket 4.0 08:35:44 10° N 08:40:01 64° E 08:44:20 10° SSE
Cosmos 1346 Rocket 3.0 08:36:09 10° N 08:40:13 73° E 08:44:15 10° S
Cosmos 2112 Rocket 3.9 08:43:08 10° SSW 08:48:26 79° WNW 08:53:42 10° N
Palapa 6 Rocket 3.4 08:46:19 20° NW 08:48:40 48° NNE 08:52:52 10° E
Cosmos 1733 Rocket 4.0 08:45:59 10° NW 08:49:39 26° W 08:53:20 10° SSW
CZ-4B R/B 3.8 08:48:26 10° NNW 08:52:23 31° WNW 08:55:51 12° SW
Okean O Rocket 2.7 08:48:33 10° NNE 08:52:51 48° ESE 08:57:07 10° S
Cosmos 1484 Rocket 2.6 08:49:42 10° NNE 08:53:23 84° E 08:57:05 10° S
CZ-4B R/B 4.0 08:51:29 10° NNE 08:56:47 55° ESE 09:01:58 10° S
S3M 3.9 08:51:31 10° N 08:57:43 77° W 09:04:01 10° S
Delta 128 3.7 08:54:08 16° SW 08:57:46 70° SSE 09:02:11 10° ENE
Cosmos 1697 Rocket 3.4 08:56:27 10° S 09:01:57 56° ESE 09:07:27 10° NNE
ARIANE 3 DEB 4.0 09:01:33 11° SSW 09:02:20 12° S 09:03:23 10° SSE
Delta 2 Rocket 4.4 08:58:50 10° SW 09:04:30 68° SE 09:10:07 10° ENE
Cosmos 1500 4.4 09:07:38 10° NW 09:10:32 21° W 09:13:27 10° SW
Cosmos 1461 3.9 09:08:19 10° NW 09:11:49 26° WSW 09:15:26 10° SSW
ALOS 2.5 09:10:28 10° NNE 09:15:08 75° ESE 09:19:46 10° S
Cosmos 1680 Rocket 4.3 09:12:01 10° SW 09:16:35 29° WNW 09:21:07 10° NNW
Star 37E S/N 40062 2.8 09:17:44 11° WNW 09:19:32 39° SSW 09:21:23 10° SE
Cosmos 2369 3.7 09:15:08 10° SSW 09:20:47 78° WNW 09:26:26 10° NNE
ATLAS 3B CENTAUR R/B 3.8 09:18:10 10° W 09:22:07 15° SW 09:24:47 10° SSW
Cosmos 1782 Rocket 3.5 09:18:23 10° NNW 09:22:44 66° W 09:27:07 10° S
Okean 3 3.4 09:18:52 10° SSW 09:22:58 67° W 09:27:07 10° N
Cosmos 2221 Rocket 4.0 09:18:53 10° SSW 09:22:59 38° W 09:27:03 10° NNW
USA 229 DEB 4.3 09:21:12 10° S 09:27:32 59° ESE 09:33:59 10° NE
USA 229 4.3 09:21:16 10° S 09:27:37 59° ESE 09:34:04 10° NE
Atlas Centaur 2 4.0 09:26:26 10° NW 09:33:33 43° NNE 09:41:29 10° E
